Location: Brookfield Center
(41.2406°N, 80.5579°W)
Time: 21:34:45
(UTC+00:00)

USA 238 DEB - Pass Details

Date: 18 January 2020
Orbit: 1021 x 1191 km, 63.4° (Epoch: 10 February)

Event Time Altitude Azimuth Distance (km) Brightness Sun altitude
Exits shadow 11:39:42 - 322° (NW) 3,198 5.7 -12.1°
Reaches altitude 10° 11:40:12 10° 322° (NW) 3,022 5.6 -12.0°
Maximum altitude 11:47:25 74° 239° (WSW) 1,206 3.9 -10.7°
Drops below altitude 10° 11:54:50 10° 156° (SSE) 3,099 6.8 -9.4°
Sets 11:57:36 0° 154° (SSE) 4,067 7.5 -8.9°
